ONEWEB-0050 (45453 NORAD) Tracking and Keplerian Element Data

This shows tracking and keplerian element data for the satellite.

Feedback or suggestion? Click here.




ElementValue
Catalog45453
NameONEWEB-0050
Epoch Orbit3241
Epoch Day297.91667824
Epoch Year2020
RAAN69.846
Inclination87.5407
Eccentricity0.0024085
Argument of Perigee232.0274
Mean Anonmoly145.4923
Mean Motion14.94619464
Decay Rate-0.00025187
L11 45453U 20020AF 20297.91667824 -.00025187 00000-0 -23274-2 0 9993
L22 45453 87.5407 69.8460 0024085 232.0274 145.4923 14.94619464 32412

Live tracking and technical data element details for ONEWEB-0050 (NORAD 45453). ONEWEB-0050 can be tracked NOW for your location showing map with azimuth and elevation plus other details from your city location.

Track the satellite on the map from your city or location and see movement details for azimuth, elevation, latitude, longitude, range, height, and movement on the map or in text.







IsCatalogInMostPopularTable: catalog: 45453, numindb: 53
Update: records affected: 1



GetName: 45453 ONEWEB-0050

Hit Count: updated at: Sat, 24 Oct 2020 23:05:31 GMT